Time,TemperatureF,DewpointF,PressureIn,WindDirection,WindDirectionDegrees,WindSpeedMPH,WindSpeedGustMPH,Humidity,HourlyPrecipIn,Conditions,Clouds,dailyrainin,SoftwareType,DateUTC
2013-05-06 00:01:00,53.6,51.6,29.68,NNW,338,2.4,2.5,93,0.00,,---,0.00,VWS V14.00,2013-05-06 05:01:00,
2013-05-06 00:07:00,53.6,51.6,29.68,WNW,292,4.4,4.4,93,0.00,,---,0.00,VWS V14.00,2013-05-06 05:07:00,
2013-05-06 00:12:00,53.6,51.6,29.68,NNE,22,2.7,2.7,93,0.00,,---,0.00,VWS V14.00,2013-05-06 05:12:00,
2013-05-06 00:18:00,53.6,51.6,29.68,NNW,338,1.0,3.6,93,0.00,,---,0.00,VWS V14.00,2013-05-06 05:18:00,
2013-05-06 00:23:00,53.6,51.6,29.68,North,0,3.8,3.8,93,0.00,,---,0.00,VWS V14.00,2013-05-06 05:23:00,
2013-05-06 00:28:00,53.6,51.6,29.68,WSW,248,2.7,3.4,93,0.00,,---,0.00,VWS V14.00,2013-05-06 05:28:00,
2013-05-06 00:34:00,53.6,51.6,29.68,NNW,338,2.7,3.6,93,0.00,,---,0.00,VWS V14.00,2013-05-06 05:34:00,
2013-05-06 00:39:00,53.6,51.6,29.68,NW,315,3.0,3.0,93,0.00,,---,0.00,VWS V14.00,2013-05-06 05:39:00,
2013-05-06 00:44:00,53.6,51.6,29.68,NW,315,5.8,5.8,93,0.00,,---,0.00,VWS V14.00,2013-05-06 05:44:00,
2013-05-06 00:49:00,53.4,51.5,29.68,NNW,338,4.4,4.4,93,0.00,,---,0.00,VWS V14.00,2013-05-06 05:49:00,
2013-05-06 00:54:00,53.6,51.6,29.68,WNW,292,4.1,4.1,93,0.00,,---,0.00,VWS V14.00,2013-05-06 05:54:00,
2013-05-06 01:00:00,53.6,51.6,29.68,NW,315,4.1,4.1,93,0.00,,---,0.00,VWS V14.00,2013-05-06 06:00:00,
2013-05-06 01:05:00,53.6,51.6,29.68,NW,315,4.9,4.9,93,0.00,,---,0.00,VWS V14.00,2013-05-06 06:05:00,
2013-05-06 01:10:00,53.8,51.8,29.68,NNW,338,3.5,3.5,93,0.00,,---,0.00,VWS V14.00,2013-05-06 06:10:00,
2013-05-06 01:15:00,53.8,51.8,29.68,WNW,292,4.6,4.6,93,0.00,,---,0.00,VWS V14.00,2013-05-06 06:15:00,
2013-05-06 01:21:00,54.0,52.3,29.65,NNW,338,2.7,2.7,94,0.00,,---,0.00,VWS V14.00,2013-05-06 06:21:00,
2013-05-06 01:26:00,54.0,52.3,29.65,North,0,3.0,3.8,94,0.00,,---,0.00,VWS V14.00,2013-05-06 06:26:00,
2013-05-06 01:31:00,53.8,51.8,29.65,NE,45,2.4,4.0,93,0.00,,---,0.00,VWS V14.00,2013-05-06 06:31:00,
2013-05-06 01:36:00,53.8,51.8,29.65,North,0,3.8,3.8,93,0.00,,---,0.00,VWS V14.00,2013-05-06 06:36:00,
2013-05-06 01:42:00,53.8,51.8,29.65,NNW,338,5.5,5.5,93,0.00,,---,0.00,VWS V14.00,2013-05-06 06:42:00,
2013-05-06 01:47:00,53.8,51.8,29.65,North,0,4.6,4.6,93,0.00,,---,0.00,VWS V14.00,2013-05-06 06:47:00,
2013-05-06 01:52:00,53.8,51.8,29.65,NNW,338,2.7,2.7,93,0.00,,---,0.00,VWS V14.00,2013-05-06 06:52:00,
2013-05-06 01:57:00,54.0,52.0,29.65,NE,45,4.4,4.4,93,0.00,,---,0.00,VWS V14.00,2013-05-06 06:57:00,
2013-05-06 02:03:00,54.0,52.3,29.65,North,0,7.2,7.2,94,0.00,,---,0.00,VWS V14.00,2013-05-06 07:03:00,
2013-05-06 02:08:00,54.1,52.5,29.65,NNW,338,3.8,3.8,94,0.00,,---,0.00,VWS V14.00,2013-05-06 07:08:00,
2013-05-06 02:13:00,54.3,52.6,29.65,NNE,22,4.4,4.4,94,0.00,,---,0.00,VWS V14.00,2013-05-06 07:13:00,
2013-05-06 02:18:00,54.3,52.6,29.65,North,0,3.8,3.8,94,0.00,,---,0.00,VWS V14.00,2013-05-06 07:18:00,
2013-05-06 02:24:00,54.3,52.6,29.65,North,0,4.4,4.4,94,0.00,,---,0.00,VWS V14.00,2013-05-06 07:24:00,
2013-05-06 02:29:00,54.3,52.6,29.65,North,0,5.5,5.5,94,0.00,,---,0.00,VWS V14.00,2013-05-06 07:29:00,
2013-05-06 02:34:00,54.3,52.6,29.65,North,0,5.2,5.2,94,0.00,,---,0.00,VWS V14.00,2013-05-06 07:34:00,
2013-05-06 02:39:00,54.3,52.6,29.65,North,0,5.2,5.2,94,0.00,,---,0.00,VWS V14.00,2013-05-06 07:39:00,
2013-05-06 02:45:00,54.5,52.8,29.65,West,270,4.6,4.6,94,0.00,,---,0.00,VWS V14.00,2013-05-06 07:45:00,
2013-05-06 02:50:00,54.5,52.8,29.68,North,0,4.4,4.4,94,0.00,,---,0.00,VWS V14.00,2013-05-06 07:50:00,
2013-05-06 02:55:00,54.5,52.8,29.68,NNE,22,4.9,4.9,94,0.00,,---,0.00,VWS V14.00,2013-05-06 07:55:00,
2013-05-06 03:00:00,54.5,52.8,29.68,NNW,338,2.7,2.7,94,0.00,,---,0.00,VWS V14.00,2013-05-06 08:00:00,
2013-05-06 03:06:00,54.5,52.8,29.65,NNW,338,4.1,4.1,94,0.00,,---,0.00,VWS V14.00,2013-05-06 08:06:00,
2013-05-06 03:11:00,54.5,52.8,29.65,NNE,22,4.4,4.4,94,0.00,,---,0.00,VWS V14.00,2013-05-06 08:11:00,
2013-05-06 03:17:00,54.5,52.8,29.65,NNE,22,2.7,2.7,94,0.00,,---,0.00,VWS V14.00,2013-05-06 08:17:00,
2013-05-06 03:23:00,54.5,52.8,29.65,NNW,338,5.5,5.5,94,0.00,,---,0.00,VWS V14.00,2013-05-06 08:23:00,
2013-05-06 03:28:00,54.5,52.8,29.65,NNW,338,4.6,4.6,94,0.00,,---,0.00,VWS V14.00,2013-05-06 08:28:00,
2013-05-06 03:34:00,54.5,52.8,29.65,WNW,292,4.6,4.6,94,0.00,,---,0.00,VWS V14.00,2013-05-06 08:34:00,
2013-05-06 03:39:00,54.5,52.8,29.65,North,0,4.9,5.4,94,0.00,,---,0.00,VWS V14.00,2013-05-06 08:39:00,
2013-05-06 03:44:00,54.5,52.8,29.65,NNW,338,1.0,4.0,94,0.00,,---,0.00,VWS V14.00,2013-05-06 08:44:00,
2013-05-06 03:50:00,54.5,52.8,29.65,North,0,4.9,4.9,94,0.00,,---,0.00,VWS V14.00,2013-05-06 08:50:00,
2013-05-06 03:56:00,54.5,52.8,29.65,NNW,338,1.0,3.1,94,0.00,,---,0.00,VWS V14.00,2013-05-06 08:56:00,
2013-05-06 04:02:00,54.5,52.8,29.65,North,0,2.7,2.7,94,0.00,,---,0.00,VWS V14.00,2013-05-06 09:02:00,
2013-05-06 04:07:00,54.5,52.8,29.65,NNW,338,5.5,5.5,94,0.00,,---,0.00,VWS V14.00,2013-05-06 09:07:00,
2013-05-06 04:12:00,54.7,53.0,29.65,NNW,338,2.4,4.0,94,0.00,,---,0.00,VWS V14.00,2013-05-06 09:12:00,
2013-05-06 04:17:00,54.7,53.0,29.65,North,0,2.7,2.7,94,0.00,,---,0.00,VWS V14.00,2013-05-06 09:17:00,
2013-05-06 04:23:00,54.7,53.0,29.65,NNW,338,1.0,2.5,94,0.00,,---,0.00,VWS V14.00,2013-05-06 09:23:00,
2013-05-06 04:28:00,54.5,52.8,29.65,North,0,4.9,4.9,94,0.00,,---,0.00,VWS V14.00,2013-05-06 09:28:00,
2013-05-06 04:33:00,54.5,52.8,29.65,North,0,7.2,7.2,94,0.00,,---,0.00,VWS V14.00,2013-05-06 09:33:00,
2013-05-06 04:38:00,54.5,53.1,29.65,NW,315,4.6,4.6,95,0.00,,---,0.00,VWS V14.00,2013-05-06 09:38:00,
2013-05-06 04:44:00,54.5,53.1,29.65,NNW,338,3.8,3.8,95,0.00,,---,0.00,VWS V14.00,2013-05-06 09:44:00,
2013-05-06 04:49:00,54.5,53.1,29.65,NNE,22,4.4,4.4,95,0.00,,---,0.00,VWS V14.00,2013-05-06 09:49:00,
2013-05-06 04:54:00,54.5,53.1,29.65,NNE,22,3.5,4.0,95,0.00,,---,0.00,VWS V14.00,2013-05-06 09:54:00,
2013-05-06 04:59:00,54.5,53.1,29.65,NNW,338,4.1,4.1,95,0.00,,---,0.00,VWS V14.00,2013-05-06 09:59:00,
2013-05-06 05:05:00,54.5,53.1,29.65,North,0,6.3,6.3,95,0.00,,---,0.00,VWS V14.00,2013-05-06 10:05:00,
2013-05-06 05:10:00,54.5,53.4,29.65,NNW,338,2.1,2.2,96,0.00,,---,0.00,VWS V14.00,2013-05-06 10:10:00,
2013-05-06 05:15:00,54.5,53.4,29.65,NW,315,3.0,3.0,96,0.00,,---,0.00,VWS V14.00,2013-05-06 10:15:00,
2013-05-06 05:20:00,54.5,53.4,29.65,North,0,4.4,4.4,96,0.00,,---,0.00,VWS V14.00,2013-05-06 10:20:00,
2013-05-06 05:26:00,54.7,53.6,29.65,North,0,5.8,5.8,96,0.00,,---,0.00,VWS V14.00,2013-05-06 10:26:00,
2013-05-06 05:31:00,54.7,53.8,29.65,North,0,4.4,4.9,97,0.00,,---,0.00,VWS V14.00,2013-05-06 10:31:00,
2013-05-06 05:37:00,54.7,53.8,29.68,North,0,4.1,4.7,97,0.00,,---,0.00,VWS V14.00,2013-05-06 10:37:00,
2013-05-06 05:43:00,54.9,54.0,29.68,NNW,338,3.5,4.3,97,0.00,,---,0.00,VWS V14.00,2013-05-06 10:43:00,
2013-05-06 05:48:00,54.9,54.0,29.68,North,0,3.8,3.8,97,0.00,,---,0.00,VWS V14.00,2013-05-06 10:48:00,
2013-05-06 05:54:00,54.9,54.0,29.68,NNE,22,6.3,6.3,97,0.00,,---,0.00,VWS V14.00,2013-05-06 10:54:00,
2013-05-06 06:00:00,54.9,54.3,29.68,NNW,338,1.0,4.7,98,0.00,,---,0.00,VWS V14.00,2013-05-06 11:00:00,
2013-05-06 06:05:00,54.9,54.3,29.68,NNW,338,4.4,4.4,98,0.00,,---,0.00,VWS V14.00,2013-05-06 11:05:00,
2013-05-06 06:11:00,54.9,54.3,29.68,NNE,22,4.4,4.4,98,0.00,,---,0.00,VWS V14.00,2013-05-06 11:11:00,
2013-05-06 06:16:00,55.0,54.5,29.68,NNW,338,4.4,4.4,98,0.00,,---,0.00,VWS V14.00,2013-05-06 11:16:00,
2013-05-06 06:22:00,55.0,54.5,29.68,NE,45,3.0,5.4,98,0.00,,---,0.00,VWS V14.00,2013-05-06 11:22:00,
2013-05-06 06:28:00,55.0,54.5,29.68,North,0,1.0,3.8,98,0.00,,---,0.00,VWS V14.00,2013-05-06 11:28:00,
2013-05-06 06:33:00,55.2,54.7,29.68,NNW,338,3.0,3.4,98,0.00,,---,0.00,VWS V14.00,2013-05-06 11:33:00,
2013-05-06 06:39:00,55.4,54.8,29.68,NNW,338,1.0,1.6,98,0.00,,---,0.00,VWS V14.00,2013-05-06 11:39:00,
2013-05-06 06:45:00,55.6,55.0,29.68,North,0,5.5,5.5,98,0.00,,---,0.00,VWS V14.00,2013-05-06 11:45:00,
2013-05-06 06:50:00,55.8,55.2,29.68,NNW,338,3.0,3.0,98,0.00,,---,0.00,VWS V14.00,2013-05-06 11:50:00,
2013-05-06 06:55:00,55.8,55.2,29.68,North,0,3.0,3.4,98,0.00,,---,0.00,VWS V14.00,2013-05-06 11:55:00,
2013-05-06 07:00:00,55.9,55.4,29.68,NNW,338,2.1,2.1,98,0.00,,---,0.00,VWS V14.00,2013-05-06 12:00:00,
2013-05-06 07:06:00,55.9,55.4,29.68,NNW,338,4.4,5.8,98,0.00,,---,0.00,VWS V14.00,2013-05-06 12:06:00,
2013-05-06 07:11:00,56.1,55.6,29.68,NE,45,6.3,6.3,98,0.00,,---,0.00,VWS V14.00,2013-05-06 12:11:00,
2013-05-06 07:16:00,56.1,55.3,29.68,NW,315,5.8,6.3,97,0.00,,---,0.00,VWS V14.00,2013-05-06 12:16:00,
2013-05-06 07:21:00,56.1,55.3,29.68,NW,315,4.9,4.9,97,0.00,,---,0.00,VWS V14.00,2013-05-06 12:21:00,
2013-05-06 07:26:00,56.1,55.3,29.68,NNW,338,3.8,3.8,97,0.00,,---,0.00,VWS V14.00,2013-05-06 12:26:00,
2013-05-06 07:32:00,56.3,55.5,29.71,NNE,22,7.2,7.2,97,0.00,,---,0.00,VWS V14.00,2013-05-06 12:32:00,
2013-05-06 07:37:00,56.3,55.2,29.71,North,0,2.4,2.4,96,0.00,,---,0.00,VWS V14.00,2013-05-06 12:37:00,
2013-05-06 07:43:00,56.3,55.2,29.71,North,0,7.7,7.7,96,0.00,,---,0.00,VWS V14.00,2013-05-06 12:43:00,
2013-05-06 07:49:00,56.3,55.2,29.68,NNW,338,4.9,4.9,96,0.00,,---,0.00,VWS V14.00,2013-05-06 12:49:00,
2013-05-06 07:55:00,56.3,54.9,29.68,North,0,4.6,4.9,95,0.00,,---,0.00,VWS V14.00,2013-05-06 12:55:00,
2013-05-06 08:00:00,56.3,54.9,29.68,North,0,7.7,7.7,95,0.00,,---,0.00,VWS V14.00,2013-05-06 13:00:00,
2013-05-06 08:05:00,56.5,55.1,29.71,North,0,4.9,7.2,95,0.00,,---,0.00,VWS V14.00,2013-05-06 13:05:00,
2013-05-06 08:10:00,56.3,54.9,29.71,NNW,338,6.0,6.0,95,0.00,,---,0.00,VWS V14.00,2013-05-06 13:10:00,
2013-05-06 08:16:00,56.3,54.6,29.71,NNW,338,6.0,6.0,94,0.00,,---,0.00,VWS V14.00,2013-05-06 13:16:00,
2013-05-06 08:21:00,56.3,54.9,29.71,NNE,22,8.3,8.3,95,0.00,,---,0.00,VWS V14.00,2013-05-06 13:21:00,
2013-05-06 08:26:00,56.3,54.9,29.71,North,0,5.2,5.2,95,0.00,,---,0.00,VWS V14.00,2013-05-06 13:26:00,
2013-05-06 08:31:00,56.7,55.2,29.71,North,0,6.0,6.0,95,0.00,,---,0.00,VWS V14.00,2013-05-06 13:31:00,
2013-05-06 08:36:00,56.7,55.2,29.71,NNW,338,4.4,4.4,95,0.00,,---,0.00,VWS V14.00,2013-05-06 13:36:00,
2013-05-06 08:42:00,57.0,55.6,29.71,NNW,338,5.8,6.3,95,0.00,,---,0.00,VWS V14.00,2013-05-06 13:42:00,
2013-05-06 08:47:00,57.2,55.8,29.71,North,0,8.6,8.6,95,0.00,,---,0.00,VWS V14.00,2013-05-06 13:47:00,
2013-05-06 08:52:00,57.4,55.7,29.71,North,0,6.3,6.3,94,0.00,,---,0.00,VWS V14.00,2013-05-06 13:52:00,
2013-05-06 08:57:00,57.6,55.8,29.71,NE,45,10.0,10.0,94,0.00,,---,0.00,VWS V14.00,2013-05-06 13:57:00,
2013-05-06 09:03:00,57.7,55.4,29.71,North,0,7.7,7.7,92,0.00,,---,0.00,VWS V14.00,2013-05-06 14:03:00,
2013-05-06 09:09:00,58.1,55.5,29.71,WNW,292,7.7,7.7,91,0.00,,---,0.00,VWS V14.00,2013-05-06 14:09:00,
2013-05-06 09:14:00,58.3,55.7,29.71,NNE,22,7.2,7.2,91,0.00,,---,0.00,VWS V14.00,2013-05-06 14:14:00,
2013-05-06 09:20:00,59.2,55.3,29.71,WNW,292,6.0,8.5,87,0.00,,---,0.00,VWS V14.00,2013-05-06 14:20:00,
2013-05-06 09:26:00,59.5,55.7,29.71,NNW,338,7.2,7.2,87,0.00,,---,0.00,VWS V14.00,2013-05-06 14:26:00,
2013-05-06 09:31:00,59.2,54.0,29.71,North,0,5.5,6.3,83,0.00,,---,0.00,VWS V14.00,2013-05-06 14:31:00,
2013-05-06 09:36:00,58.8,53.7,29.71,NW,315,6.9,7.2,83,0.00,,---,0.00,VWS V14.00,2013-05-06 14:36:00,
2013-05-06 09:41:00,58.6,53.5,29.71,NNE,22,5.8,5.8,83,0.00,,---,0.00,VWS V14.00,2013-05-06 14:41:00,
2013-05-06 09:47:00,59.4,53.9,29.71,NNE,22,9.1,9.1,82,0.00,,---,0.00,VWS V14.00,2013-05-06 14:47:00,
2013-05-06 09:52:00,59.5,53.4,29.71,North,0,6.9,8.7,80,0.00,,---,0.00,VWS V14.00,2013-05-06 14:52:00,
2013-05-06 09:57:00,59.7,52.9,29.71,NNW,338,7.2,7.8,78,0.00,,---,0.00,VWS V14.00,2013-05-06 14:57:00,
2013-05-06 10:02:00,59.9,52.7,29.71,North,0,7.7,8.5,77,0.00,,---,0.00,VWS V14.00,2013-05-06 15:02:00,
2013-05-06 10:07:00,59.9,52.0,29.71,North,0,8.0,8.0,75,0.00,,---,0.00,VWS V14.00,2013-05-06 15:07:00,
2013-05-06 10:12:00,59.7,51.8,29.71,WSW,248,6.0,6.0,75,0.00,,---,0.00,VWS V14.00,2013-05-06 15:12:00,
2013-05-06 10:18:00,59.7,52.2,29.71,North,0,7.2,8.1,76,0.00,,---,0.00,VWS V14.00,2013-05-06 15:18:00,
2013-05-06 10:23:00,59.4,51.5,29.71,NW,315,6.0,8.7,75,0.00,,---,0.00,VWS V14.00,2013-05-06 15:23:00,
2013-05-06 10:28:00,59.2,51.3,29.71,NNW,338,13.0,13.0,75,0.00,,---,0.00,VWS V14.00,2013-05-06 15:28:00,
2013-05-06 10:34:00,59.2,51.6,29.71,NNW,338,10.8,10.8,76,0.00,,---,0.00,VWS V14.00,2013-05-06 15:34:00,
2013-05-06 10:40:00,59.4,51.5,29.71,North,0,8.0,8.0,75,0.00,,---,0.00,VWS V14.00,2013-05-06 15:40:00,
2013-05-06 10:45:00,60.3,52.7,29.71,North,0,4.6,6.0,76,0.00,,---,0.00,VWS V14.00,2013-05-06 15:45:00,
2013-05-06 10:50:00,60.8,52.5,29.71,North,0,10.5,10.5,74,0.00,,---,0.00,VWS V14.00,2013-05-06 15:50:00,
2013-05-06 10:56:00,61.2,52.8,29.71,North,0,7.2,7.2,74,0.00,,---,0.00,VWS V14.00,2013-05-06 15:56:00,
2013-05-06 11:02:00,62.2,53.9,29.71,North,0,7.7,7.7,74,0.00,,---,0.00,VWS V14.00,2013-05-06 16:02:00,
2013-05-06 11:07:00,62.6,52.3,29.71,NNW,338,11.1,11.1,69,0.00,,---,0.00,VWS V14.00,2013-05-06 16:07:00,
2013-05-06 11:12:00,62.6,51.9,29.71,NNE,22,10.2,10.2,68,0.00,,---,0.00,VWS V14.00,2013-05-06 16:12:00,
2013-05-06 11:18:00,62.2,51.2,29.74,North,0,8.8,10.1,67,0.00,,---,0.00,VWS V14.00,2013-05-06 16:18:00,
2013-05-06 11:23:00,62.6,51.5,29.74,NNE,22,8.8,10.5,67,0.00,,---,0.00,VWS V14.00,2013-05-06 16:23:00,
2013-05-06 11:28:00,62.6,51.1,29.74,North,0,7.2,7.4,66,0.00,,---,0.00,VWS V14.00,2013-05-06 16:28:00,
2013-05-06 11:33:00,63.0,51.0,29.74,North,0,8.3,8.3,65,0.00,,---,0.00,VWS V14.00,2013-05-06 16:33:00,
2013-05-06 11:39:00,63.7,52.1,29.74,North,0,8.3,11.0,66,0.00,,---,0.00,VWS V14.00,2013-05-06 16:39:00,
2013-05-06 11:44:00,64.2,52.2,29.74,North,0,9.1,9.1,65,0.00,,---,0.00,VWS V14.00,2013-05-06 16:44:00,
2013-05-06 11:49:00,64.4,51.5,29.71,North,0,6.3,6.3,63,0.00,,---,0.00,VWS V14.00,2013-05-06 16:49:00,
2013-05-06 11:54:00,64.8,51.9,29.71,NNE,22,6.6,8.1,63,0.00,,---,0.00,VWS V14.00,2013-05-06 16:54:00,
2013-05-06 11:59:00,65.7,52.7,29.71,NNE,22,6.0,8.1,63,0.00,,---,0.00,VWS V14.00,2013-05-06 16:59:00,
2013-05-06 12:05:00,65.3,50.6,29.71,North,0,6.0,10.7,59,0.00,,---,0.00,VWS V14.00,2013-05-06 17:05:00,
2013-05-06 12:10:00,64.9,50.7,29.71,North,0,10.2,10.2,60,0.00,,---,0.00,VWS V14.00,2013-05-06 17:10:00,
2013-05-06 12:16:00,64.8,51.0,29.71,NW,315,9.1,9.1,61,0.00,,---,0.00,VWS V14.00,2013-05-06 17:16:00,
2013-05-06 12:22:00,64.8,51.5,29.71,NNW,338,16.7,16.7,62,0.00,,---,0.00,VWS V14.00,2013-05-06 17:22:00,
2013-05-06 12:27:00,65.1,51.3,29.71,North,0,8.3,8.3,61,0.00,,---,0.00,VWS V14.00,2013-05-06 17:27:00,
2013-05-06 12:33:00,65.3,52.4,29.71,North,0,9.1,9.1,63,0.00,,---,0.00,VWS V14.00,2013-05-06 17:33:00,
2013-05-06 12:38:00,64.9,51.2,29.71,North,0,13.9,13.9,61,0.00,,---,0.00,VWS V14.00,2013-05-06 17:38:00,
2013-05-06 12:44:00,65.3,52.0,29.71,North,0,12.5,12.5,62,0.00,,---,0.00,VWS V14.00,2013-05-06 17:44:00,
2013-05-06 12:51:00,65.7,51.4,29.71,NNE,22,14.7,14.7,60,0.00,,---,0.00,VWS V14.00,2013-05-06 17:51:00,
2013-05-06 12:56:00,65.8,51.1,29.71,NNW,338,8.6,8.6,59,0.00,,---,0.00,VWS V14.00,2013-05-06 17:56:00,
2013-05-06 13:02:00,65.5,51.2,29.71,North,0,8.3,8.3,60,0.00,,---,0.00,VWS V14.00,2013-05-06 18:02:00,
2013-05-06 13:08:00,65.1,50.0,29.71,North,0,9.1,9.1,58,0.00,,---,0.00,VWS V14.00,2013-05-06 18:08:00,
2013-05-06 13:13:00,65.3,51.1,29.71,NNE,22,4.6,4.9,60,0.00,,---,0.00,VWS V14.00,2013-05-06 18:13:00,
2013-05-06 13:19:00,65.8,52.0,29.71,North,0,5.8,5.8,61,0.00,,---,0.00,VWS V14.00,2013-05-06 18:19:00,
2013-05-06 13:25:00,66.4,51.6,29.71,NNE,22,5.5,6.3,59,0.00,,---,0.00,VWS V14.00,2013-05-06 18:25:00,
2013-05-06 13:31:00,67.1,51.8,29.71,North,0,10.2,10.2,58,0.00,,---,0.00,VWS V14.00,2013-05-06 18:31:00,
2013-05-06 13:36:00,67.5,51.7,29.71,NNE,22,6.0,6.5,57,0.00,,---,0.00,VWS V14.00,2013-05-06 18:36:00,
2013-05-06 13:42:00,68.0,51.7,29.71,North,0,8.6,8.6,56,0.00,,---,0.00,VWS V14.00,2013-05-06 18:42:00,
2013-05-06 13:48:00,67.8,49.6,29.71,NNE,22,13.6,13.6,52,0.00,,---,0.00,VWS V14.00,2013-05-06 18:48:00,
2013-05-06 13:53:00,67.6,49.9,29.71,NNW,338,6.9,6.9,53,0.00,,---,0.00,VWS V14.00,2013-05-06 18:53:00,
2013-05-06 13:59:00,68.4,50.1,29.71,NNW,338,7.2,7.2,52,0.00,,---,0.00,VWS V14.00,2013-05-06 18:59:00,
2013-05-06 14:05:00,67.6,48.9,29.71,North,0,7.2,7.2,51,0.00,,---,0.00,VWS V14.00,2013-05-06 19:05:00,
2013-05-06 14:10:00,67.6,49.9,29.71,North,0,7.2,7.6,53,0.00,,---,0.00,VWS V14.00,2013-05-06 19:10:00,
2013-05-06 14:15:00,68.0,49.7,29.71,North,0,5.8,5.8,52,0.00,,---,0.00,VWS V14.00,2013-05-06 19:15:00,
2013-05-06 14:21:00,68.0,50.2,29.71,North,0,5.8,5.8,53,0.00,,---,0.00,VWS V14.00,2013-05-06 19:21:00,
2013-05-06 14:27:00,68.4,50.6,29.71,NNW,338,5.5,5.5,53,0.00,,---,0.00,VWS V14.00,2013-05-06 19:27:00,
2013-05-06 14:32:00,68.7,51.4,29.68,North,0,6.0,6.0,54,0.00,,---,0.00,VWS V14.00,2013-05-06 19:32:00,
2013-05-06 14:38:00,69.4,51.6,29.68,North,0,7.7,7.7,53,0.00,,---,0.00,VWS V14.00,2013-05-06 19:38:00,
2013-05-06 14:44:00,69.8,50.9,29.68,North,0,5.5,5.5,51,0.00,,---,0.00,VWS V14.00,2013-05-06 19:44:00,
2013-05-06 14:50:00,70.2,50.7,29.71,North,0,7.2,7.2,50,0.00,,---,0.00,VWS V14.00,2013-05-06 19:50:00,
2013-05-06 14:56:00,70.0,50.0,29.71,NW,315,11.9,11.9,49,0.00,,---,0.00,VWS V14.00,2013-05-06 19:56:00,
2013-05-06 15:01:00,70.2,50.1,29.71,NNW,338,5.2,5.8,49,0.00,,---,0.00,VWS V14.00,2013-05-06 20:01:00,
2013-05-06 15:07:00,69.8,49.2,29.71,NE,45,5.2,5.2,48,0.00,,---,0.00,VWS V14.00,2013-05-06 20:07:00,
2013-05-06 15:12:00,69.1,49.7,29.71,North,0,5.8,5.8,50,0.00,,---,0.00,VWS V14.00,2013-05-06 20:12:00,
2013-05-06 15:17:00,68.9,50.0,29.68,North,0,4.6,4.6,51,0.00,,---,0.00,VWS V14.00,2013-05-06 20:17:00,
2013-05-06 15:23:00,68.2,49.9,29.68,NNE,22,7.7,7.7,52,0.00,,---,0.00,VWS V14.00,2013-05-06 20:23:00,
2013-05-06 15:28:00,67.8,50.6,29.68,North,0,5.8,5.8,54,0.00,,---,0.00,VWS V14.00,2013-05-06 20:28:00,
2013-05-06 15:34:00,67.6,50.9,29.68,NW,315,2.4,3.1,55,0.00,,---,0.00,VWS V14.00,2013-05-06 20:34:00,
2013-05-06 15:39:00,67.3,51.5,29.68,NW,315,6.0,6.0,57,0.00,,---,0.00,VWS V14.00,2013-05-06 20:39:00,
2013-05-06 15:45:00,67.3,51.5,29.68,North,0,3.5,3.5,57,0.00,,---,0.00,VWS V14.00,2013-05-06 20:45:00,
2013-05-06 15:51:00,67.1,50.9,29.68,North,0,5.8,5.8,56,0.00,,---,0.00,VWS V14.00,2013-05-06 20:51:00,
2013-05-06 15:57:00,67.1,51.4,29.68,West,270,4.9,4.9,57,0.00,,---,0.00,VWS V14.00,2013-05-06 20:57:00,
2013-05-06 16:02:00,67.1,51.8,29.68,North,0,3.8,3.8,58,0.00,,---,0.00,VWS V14.00,2013-05-06 21:02:00,
2013-05-06 16:07:00,67.3,52.5,29.68,NNW,338,4.1,4.1,59,0.00,,---,0.00,VWS V14.00,2013-05-06 21:07:00,
2013-05-06 16:13:00,67.3,52.5,29.68,North,0,4.6,4.6,59,0.00,,---,0.00,VWS V14.00,2013-05-06 21:13:00,
2013-05-06 16:19:00,66.9,52.1,29.68,NW,315,3.5,3.5,59,0.00,,---,0.00,VWS V14.00,2013-05-06 21:19:00,
2013-05-06 16:24:00,66.7,52.4,29.68,North,0,4.9,4.9,60,0.00,,---,0.00,VWS V14.00,2013-05-06 21:24:00,
2013-05-06 16:29:00,67.1,52.8,29.68,NNE,22,5.8,5.8,60,0.00,,---,0.00,VWS V14.00,2013-05-06 21:29:00,
2013-05-06 16:34:00,67.3,53.4,29.68,NNW,338,2.4,2.4,61,0.00,,---,0.00,VWS V14.00,2013-05-06 21:34:00,
2013-05-06 16:40:00,67.8,54.3,29.68,NNW,338,4.6,4.6,62,0.00,,---,0.00,VWS V14.00,2013-05-06 21:40:00,
2013-05-06 16:46:00,67.6,53.7,29.68,WNW,292,3.5,3.5,61,0.00,,---,0.00,VWS V14.00,2013-05-06 21:46:00,
2013-05-06 16:52:00,67.3,53.8,29.68,West,270,2.1,2.1,62,0.00,,---,0.00,VWS V14.00,2013-05-06 21:52:00,
2013-05-06 16:57:00,67.1,53.7,29.68,WNW,292,2.7,2.7,62,0.00,,---,0.00,VWS V14.00,2013-05-06 21:57:00,
2013-05-06 17:02:00,67.3,53.8,29.68,NNW,338,3.8,3.8,62,0.00,,---,0.00,VWS V14.00,2013-05-06 22:02:00,
2013-05-06 17:08:00,67.8,54.3,29.68,NNE,22,4.1,4.1,62,0.00,,---,0.00,VWS V14.00,2013-05-06 22:08:00,
2013-05-06 17:14:00,68.0,54.1,29.68,North,0,3.8,3.8,61,0.00,,---,0.00,VWS V14.00,2013-05-06 22:14:00,
2013-05-06 17:20:00,67.8,53.0,29.68,North,0,5.5,5.5,59,0.00,,---,0.00,VWS V14.00,2013-05-06 22:20:00,
2013-05-06 17:25:00,67.6,52.8,29.68,North,0,6.3,6.3,59,0.00,,---,0.00,VWS V14.00,2013-05-06 22:25:00,
2013-05-06 17:30:00,67.5,52.2,29.68,NNE,22,8.0,8.0,58,0.00,,---,0.00,VWS V14.00,2013-05-06 22:30:00,
2013-05-06 17:35:00,67.3,52.0,29.68,NW,315,4.1,4.1,58,0.00,,---,0.00,VWS V14.00,2013-05-06 22:35:00,
2013-05-06 17:41:00,66.9,51.7,29.68,NE,45,4.4,4.4,58,0.00,,---,0.00,VWS V14.00,2013-05-06 22:41:00,
2013-05-06 17:46:00,66.6,51.8,29.68,SSE,158,4.6,4.6,59,0.00,,---,0.00,VWS V14.00,2013-05-06 22:46:00,
2013-05-06 17:51:00,66.4,52.1,29.68,North,0,2.7,2.7,60,0.00,,---,0.00,VWS V14.00,2013-05-06 22:51:00,
2013-05-06 17:56:00,66.0,52.2,29.68,NW,315,3.5,3.5,61,0.00,,---,0.00,VWS V14.00,2013-05-06 22:56:00,
2013-05-06 18:02:00,65.8,52.5,29.71,South,180,2.1,2.1,62,0.00,,---,0.00,VWS V14.00,2013-05-06 23:02:00,
2013-05-06 18:07:00,65.8,52.9,29.71,WNW,292,4.6,4.6,63,0.00,,---,0.00,VWS V14.00,2013-05-06 23:07:00,
2013-05-06 18:12:00,65.8,52.9,29.71,NNW,338,2.1,2.1,63,0.00,,---,0.00,VWS V14.00,2013-05-06 23:12:00,
2013-05-06 18:17:00,65.7,52.7,29.71,NNW,338,2.1,2.1,63,0.00,,---,0.00,VWS V14.00,2013-05-06 23:17:00,
2013-05-06 18:23:00,65.8,52.9,29.71,NNW,338,4.1,4.1,63,0.00,,---,0.00,VWS V14.00,2013-05-06 23:23:00,
2013-05-06 18:28:00,65.8,52.9,29.71,NW,315,5.5,5.5,63,0.00,,---,0.00,VWS V14.00,2013-05-06 23:28:00,
2013-05-06 18:33:00,65.8,52.5,29.71,NW,315,3.0,3.0,62,0.00,,---,0.00,VWS V14.00,2013-05-06 23:33:00,
2013-05-06 18:38:00,65.7,51.9,29.71,SSE,158,2.1,2.1,61,0.00,,---,0.00,VWS V14.00,2013-05-06 23:38:00,
2013-05-06 18:43:00,65.7,51.9,29.71,NW,315,1.0,0.0,61,0.00,,---,0.00,VWS V14.00,2013-05-06 23:43:00,
2013-05-06 18:48:00,65.5,52.1,29.71,North,0,2.4,2.4,62,0.00,,---,0.00,VWS V14.00,2013-05-06 23:48:00,
2013-05-06 18:53:00,65.5,52.1,29.71,North,0,2.7,2.7,62,0.00,,---,0.00,VWS V14.00,2013-05-06 23:53:00,
2013-05-06 18:58:00,65.3,52.0,29.71,NW,315,1.0,1.1,62,0.00,,---,0.00,VWS V14.00,2013-05-06 23:58:00,
2013-05-06 19:03:00,65.1,51.8,29.71,NW,315,1.0,0.0,62,0.00,,---,0.00,VWS V14.00,2013-05-07 00:03:00,
2013-05-06 19:09:00,64.8,51.9,29.71,NW,315,2.1,2.1,63,0.00,,---,0.00,VWS V14.00,2013-05-07 00:09:00,
2013-05-06 19:15:00,64.6,51.7,29.71,NW,315,2.7,2.7,63,0.00,,---,0.00,VWS V14.00,2013-05-07 00:15:00,
2013-05-06 19:20:00,64.4,52.0,29.71,NW,315,2.7,2.7,64,0.00,,---,0.00,VWS V14.00,2013-05-07 00:20:00,
2013-05-06 19:25:00,64.2,51.8,29.71,NW,315,2.4,2.4,64,0.00,,---,0.00,VWS V14.00,2013-05-07 00:25:00,
2013-05-06 19:30:00,64.0,52.0,29.71,NW,315,1.0,0.0,65,0.00,,---,0.00,VWS V14.00,2013-05-07 00:30:00,
2013-05-06 19:36:00,63.9,51.9,29.71,NW,315,1.0,0.0,65,0.00,,---,0.00,VWS V14.00,2013-05-07 00:36:00,
2013-05-06 19:41:00,63.9,52.3,29.71,NW,315,1.0,0.0,66,0.00,,---,0.00,VWS V14.00,2013-05-07 00:41:00,
2013-05-06 19:47:00,63.7,52.5,29.71,NW,315,1.0,0.0,67,0.00,,---,0.00,VWS V14.00,2013-05-07 00:47:00,
2013-05-06 19:52:00,63.5,52.8,29.74,NW,315,2.1,2.1,68,0.00,,---,0.00,VWS V14.00,2013-05-07 00:52:00,
2013-05-06 19:58:00,63.3,52.6,29.74,NW,315,3.5,3.5,68,0.00,,---,0.00,VWS V14.00,2013-05-07 00:58:00,
2013-05-06 20:03:00,63.3,52.6,29.74,NW,315,1.0,0.0,68,0.00,,---,0.00,VWS V14.00,2013-05-07 01:03:00,
2013-05-06 20:08:00,63.1,52.8,29.74,NW,315,1.0,0.0,69,0.00,,---,0.00,VWS V14.00,2013-05-07 01:08:00,
2013-05-06 20:13:00,63.0,53.0,29.74,NW,315,1.0,0.0,70,0.00,,---,0.00,VWS V14.00,2013-05-07 01:13:00,
2013-05-06 20:18:00,62.8,52.9,29.74,NW,315,1.0,0.0,70,0.00,,---,0.00,VWS V14.00,2013-05-07 01:18:00,
2013-05-06 20:23:00,62.6,52.7,29.74,NW,315,1.0,0.0,70,0.00,,---,0.00,VWS V14.00,2013-05-07 01:23:00,
2013-05-06 20:28:00,62.4,52.9,29.74,NW,315,1.0,0.0,71,0.00,,---,0.00,VWS V14.00,2013-05-07 01:28:00,
2013-05-06 20:33:00,62.2,52.7,29.74,NW,315,1.0,0.0,71,0.00,,---,0.00,VWS V14.00,2013-05-07 01:33:00,
2013-05-06 20:38:00,62.1,52.6,29.74,NW,315,1.0,0.0,71,0.00,,---,0.00,VWS V14.00,2013-05-07 01:38:00,
2013-05-06 20:43:00,61.9,52.8,29.74,NW,315,1.0,0.0,72,0.00,,---,0.00,VWS V14.00,2013-05-07 01:43:00,
2013-05-06 20:48:00,61.7,52.6,29.74,NW,315,1.0,0.0,72,0.00,,---,0.00,VWS V14.00,2013-05-07 01:48:00,
2013-05-06 20:53:00,61.3,52.2,29.74,NW,315,1.0,0.0,72,0.00,,---,0.00,VWS V14.00,2013-05-07 01:53:00,
2013-05-06 20:58:00,61.0,52.3,29.74,NW,315,1.0,0.0,73,0.00,,---,0.00,VWS V14.00,2013-05-07 01:58:00,
2013-05-06 21:03:00,60.8,52.1,29.74,NW,315,1.0,0.0,73,0.00,,---,0.00,VWS V14.00,2013-05-07 02:03:00,
2013-05-06 21:08:00,60.8,52.5,29.74,NW,315,1.0,0.0,74,0.00,,---,0.00,VWS V14.00,2013-05-07 02:08:00,
2013-05-06 21:14:00,60.8,52.5,29.74,NW,315,3.0,3.0,74,0.00,,---,0.00,VWS V14.00,2013-05-07 02:14:00,
2013-05-06 21:20:00,60.8,52.8,29.74,NW,315,1.0,1.0,75,0.00,,---,0.00,VWS V14.00,2013-05-07 02:20:00,
2013-05-06 21:25:00,60.8,52.5,29.74,NW,315,1.0,0.0,74,0.00,,---,0.00,VWS V14.00,2013-05-07 02:25:00,
2013-05-06 21:30:00,61.0,53.0,29.74,NW,315,2.1,2.1,75,0.00,,---,0.00,VWS V14.00,2013-05-07 02:30:00,
2013-05-06 21:36:00,61.0,53.4,29.74,NW,315,1.0,0.0,76,0.00,,---,0.00,VWS V14.00,2013-05-07 02:36:00,
2013-05-06 21:41:00,60.8,53.2,29.74,NW,315,1.0,0.0,76,0.00,,---,0.00,VWS V14.00,2013-05-07 02:41:00,
2013-05-06 21:46:00,60.8,53.2,29.74,NW,315,3.0,3.0,76,0.00,,---,0.00,VWS V14.00,2013-05-07 02:46:00,
2013-05-06 21:52:00,60.8,53.5,29.74,North,0,2.1,2.2,77,0.00,,---,0.00,VWS V14.00,2013-05-07 02:52:00,
2013-05-06 21:58:00,61.0,53.4,29.74,North,0,3.5,3.5,76,0.00,,---,0.00,VWS V14.00,2013-05-07 02:58:00,
2013-05-06 22:03:00,61.0,53.7,29.76,North,0,2.1,2.1,77,0.00,,---,0.00,VWS V14.00,2013-05-07 03:03:00,
2013-05-06 22:09:00,61.0,53.7,29.76,North,0,2.7,2.7,77,0.00,,---,0.00,VWS V14.00,2013-05-07 03:09:00,
2013-05-06 22:14:00,61.0,53.7,29.76,North,0,2.1,2.1,77,0.00,,---,0.00,VWS V14.00,2013-05-07 03:14:00,
2013-05-06 22:19:00,60.8,53.9,29.76,North,0,2.4,2.4,78,0.00,,---,0.00,VWS V14.00,2013-05-07 03:19:00,
2013-05-06 22:24:00,60.8,53.9,29.76,North,0,2.4,2.4,78,0.00,,---,0.00,VWS V14.00,2013-05-07 03:24:00,
2013-05-06 22:29:00,60.6,54.1,29.76,North,0,2.7,2.7,79,0.00,,---,0.00,VWS V14.00,2013-05-07 03:29:00,
2013-05-06 22:34:00,60.6,54.1,29.74,North,0,3.0,3.0,79,0.00,,---,0.00,VWS V14.00,2013-05-07 03:34:00,
2013-05-06 22:39:00,60.4,53.9,29.74,NNW,338,2.7,2.7,79,0.00,,---,0.00,VWS V14.00,2013-05-07 03:39:00,
2013-05-06 22:44:00,60.6,54.1,29.74,NNW,338,2.4,2.4,79,0.00,,---,0.00,VWS V14.00,2013-05-07 03:44:00,
2013-05-06 22:50:00,60.6,54.1,29.76,NW,315,2.4,2.4,79,0.00,,---,0.00,VWS V14.00,2013-05-07 03:50:00,
2013-05-06 22:55:00,60.6,54.1,29.76,NW,315,2.4,2.5,79,0.00,,---,0.00,VWS V14.00,2013-05-07 03:55:00,
2013-05-06 23:00:00,60.6,54.1,29.76,North,0,3.8,3.8,79,0.00,,---,0.00,VWS V14.00,2013-05-07 04:00:00,
2013-05-06 23:01:00,60.6,54.1,29.76,North,0,4.4,4.4,79,0.00,,---,0.00,VWS V14.00,2013-05-07 04:01:00,
2013-05-06 23:02:00,60.6,54.1,29.76,NNW,338,3.8,3.8,79,0.00,,---,0.00,VWS V14.00,2013-05-07 04:02:00,
2013-05-06 23:03:00,60.4,53.9,29.76,NNW,338,2.4,2.4,79,0.00,,---,0.00,VWS V14.00,2013-05-07 04:03:00,
2013-05-06 23:06:00,60.4,53.9,29.76,NNW,338,3.0,3.0,79,0.00,,---,0.00,VWS V14.00,2013-05-07 04:06:00,
2013-05-06 23:11:00,60.4,53.9,29.76,NNW,338,3.8,3.8,79,0.00,,---,0.00,VWS V14.00,2013-05-07 04:11:00,
2013-05-06 23:16:00,60.4,53.9,29.76,NNW,338,3.8,3.8,79,0.00,,---,0.00,VWS V14.00,2013-05-07 04:16:00,
2013-05-06 23:17:00,60.4,53.9,29.76,NNW,338,2.1,2.5,79,0.00,,---,0.00,VWS V14.00,2013-05-07 04:17:00,
2013-05-06 23:22:00,60.4,53.9,29.76,North,0,2.4,2.4,79,0.00,,---,0.00,VWS V14.00,2013-05-07 04:22:00,
2013-05-06 23:27:00,60.3,53.7,29.76,North,0,2.1,2.1,79,0.00,,---,0.00,VWS V14.00,2013-05-07 04:27:00,
2013-05-06 23:32:00,60.3,53.7,29.76,NNW,338,3.5,3.5,79,0.00,,---,0.00,VWS V14.00,2013-05-07 04:32:00,
2013-05-06 23:37:00,60.4,53.9,29.76,NNW,338,1.0,0.0,79,0.00,,---,0.00,VWS V14.00,2013-05-07 04:37:00,
2013-05-06 23:43:00,60.3,53.7,29.76,NNW,338,1.0,1.3,79,0.00,,---,0.00,VWS V14.00,2013-05-07 04:43:00,
2013-05-06 23:48:00,60.3,53.7,29.76,NNW,338,2.1,2.1,79,0.00,,---,0.00,VWS V14.00,2013-05-07 04:48:00,
2013-05-06 23:53:00,60.3,53.7,29.76,NNW,338,2.7,2.7,79,0.00,,---,0.00,VWS V14.00,2013-05-07 04:53:00,
2013-05-06 23:58:00,60.3,53.7,29.76,NNW,338,3.8,3.8,79,0.00,,---,0.00,VWS V14.00,2013-05-07 04:58:00,